FAV0678 SVMI-TFFR

Flight info

Callsign FAV0678
Flight time 1h 6m
Altitude 37000
Route SOSKA2 OPUTU DCT OPMEB UA550 ITEGO DCT PELMA DCT TULEX TULEX1A
Aircraft F16/M-SDGHITUY/LB1

Departure

Time 2026-04-26 15:41
Airport Maiquetía Simón Bolívar International Airport (SVMI)

Arrival

Time 2026-04-26 16:47
Airport Maryse Condé International Airport (TFFR)
Time Latitude Longitude Altitude Speed Heading
2026-04-26 15:14 10.60049 -67.00236 230 ft 0 kts 178°
2026-04-26 15:32 10.60044 -67.00236 230 ft 6 kts 178°
2026-04-26 15:33 10.60026 -67.00213 229 ft 5 kts 91°
2026-04-26 15:33 10.60027 -67.00157 229 ft 10 kts 90°
2026-04-26 15:33 10.60028 -67.00102 228 ft 7 kts 89°
2026-04-26 15:33 10.60029 -67.00058 228 ft 6 kts 88°
2026-04-26 15:34 10.60031 -67.00014 227 ft 6 kts 87°
2026-04-26 15:34 10.60032 -66.99986 227 ft 4 kts 89°
2026-04-26 15:34 10.60032 -66.99979 227 ft 0 kts 89°
2026-04-26 15:35 10.60032 -66.99935 227 ft 6 kts 87°
2026-04-26 15:35 10.60065 -66.99916 226 ft 7 kts
2026-04-26 15:35 10.60116 -66.99906 226 ft 7 kts 39°
2026-04-26 15:36 10.60135 -66.99850 222 ft 12 kts 83°
2026-04-26 15:36 10.60138 -66.99759 216 ft 12 kts 86°
2026-04-26 15:36 10.60132 -66.99689 217 ft 10 kts 114°
2026-04-26 15:36 10.60083 -66.99665 218 ft 5 kts 178°
2026-04-26 15:37 10.60037 -66.99663 223 ft 12 kts 177°
2026-04-26 15:37 10.59972 -66.99661 228 ft 7 kts 179°
2026-04-26 15:37 10.59924 -66.99644 227 ft 9 kts 133°
2026-04-26 15:37 10.59917 -66.99587 223 ft 0 kts 76°
2026-04-26 15:41 10.60784 -66.97276 1485 ft 224 kts 58°
2026-04-26 15:41 10.61538 -66.95874 2627 ft 243 kts 73°
2026-04-26 15:41 10.61573 -66.94430 3732 ft 184 kts 102°
2026-04-26 15:41 10.61432 -66.93070 3844 ft 207 kts 81°
2026-04-26 15:42 10.61877 -66.91612 3964 ft 223 kts 81°
2026-04-26 15:42 10.61980 -66.90012 4174 ft 230 kts 88°
2026-04-26 15:42 10.62207 -66.88392 4458 ft 236 kts 81°
2026-04-26 15:42 10.62524 -66.86680 4842 ft 256 kts 81°
2026-04-26 15:43 10.62863 -66.84845 5319 ft 272 kts 81°
2026-04-26 15:43 10.63218 -66.82925 5871 ft 285 kts 81°
2026-04-26 15:43 10.63973 -66.78815 7210 ft 303 kts 81°
2026-04-26 15:44 10.64352 -66.76737 7974 ft 308 kts 81°
2026-04-26 15:44 10.65139 -66.72429 9747 ft 306 kts 81°
2026-04-26 15:44 10.65537 -66.70248 10690 ft 321 kts 81°
2026-04-26 15:45 10.66375 -66.65628 13027 ft 337 kts 81°
2026-04-26 15:45 10.66803 -66.63257 14059 ft 350 kts 81°
2026-04-26 15:46 10.67693 -66.58344 16204 ft 352 kts 81°
2026-04-26 15:46 10.68134 -66.55918 17400 ft 346 kts 81°
2026-04-26 15:46 10.68576 -66.53495 18329 ft 346 kts 81°
2026-04-26 15:46 10.68864 -66.51920 18884 ft 342 kts 81°
2026-04-26 15:47 10.69993 -66.48988 20055 ft 328 kts 64°
2026-04-26 15:47 10.71911 -66.44876 21574 ft 318 kts 66°
2026-04-26 15:47 10.72814 -66.42853 22384 ft 309 kts 66°
2026-04-26 15:48 10.73683 -66.40908 23238 ft 299 kts 66°
2026-04-26 15:48 10.74532 -66.39012 24042 ft 289 kts 66°
2026-04-26 15:48 10.75352 -66.37181 24834 ft 278 kts 66°
2026-04-26 15:48 10.76143 -66.35414 25522 ft 284 kts 66°
2026-04-26 15:49 10.77072 -66.33341 25297 ft 360 kts 66°
2026-04-26 15:49 10.78203 -66.30809 25280 ft 425 kts 66°
2026-04-26 15:49 10.79543 -66.27802 25459 ft 527 kts 66°
2026-04-26 15:49 10.81143 -66.24198 25794 ft 576 kts 66°
2026-04-26 15:50 10.83304 -66.20698 25979 ft 599 kts 43°
2026-04-26 15:50 10.86603 -66.18133 26479 ft 615 kts 36°
2026-04-26 15:50 10.90165 -66.15497 27533 ft 622 kts 36°
2026-04-26 15:50 10.93685 -66.12899 28581 ft 627 kts 36°
2026-04-26 15:51 10.97234 -66.10294 29622 ft 632 kts 36°
2026-04-26 15:51 11.00772 -66.07713 30587 ft 635 kts 36°
2026-04-26 15:51 11.04385 -66.05078 31554 ft 637 kts 36°
2026-04-26 15:51 11.07992 -66.02452 32578 ft 639 kts 36°
2026-04-26 15:52 11.11608 -65.99820 33669 ft 641 kts 36°
2026-04-26 15:52 11.15264 -65.97158 34585 ft 646 kts 36°
2026-04-26 15:52 11.18906 -65.94491 35498 ft 649 kts 37°
2026-04-26 15:52 11.21361 -65.92693 36142 ft 651 kts 37°
2026-04-26 15:53 11.26311 -65.89066 36935 ft 663 kts 37°
2026-04-26 15:53 11.30100 -65.86288 37013 ft 677 kts 37°
2026-04-26 15:53 11.33967 -65.83451 36897 ft 692 kts 37°
2026-04-26 15:54 11.41788 -65.77715 36846 ft 670 kts 37°
2026-04-26 15:54 11.45437 -65.75041 36796 ft 644 kts 37°
2026-04-26 15:54 11.48983 -65.72408 36833 ft 621 kts 37°
2026-04-26 15:54 11.52437 -65.69824 36860 ft 603 kts 37°
2026-04-26 15:55 11.55773 -65.67329 36874 ft 589 kts 37°
2026-04-26 15:55 11.62522 -65.62810 36856 ft 573 kts 31°
2026-04-26 15:56 11.69273 -65.58621 36817 ft 563 kts 32°
2026-04-26 15:56 11.75924 -65.54452 36760 ft 557 kts 33°
2026-04-26 15:57 11.82488 -65.50291 36706 ft 553 kts 33°
2026-04-26 15:57 11.88840 -65.46117 36845 ft 543 kts 34°
2026-04-26 15:58 11.95070 -65.41885 37023 ft 536 kts 37°
2026-04-26 15:58 12.01174 -65.37413 37226 ft 531 kts 37°
2026-04-26 15:58 12.04155 -65.35243 37347 ft 529 kts 37°
2026-04-26 15:59 12.07140 -65.33070 37323 ft 530 kts 37°
2026-04-26 15:59 12.10186 -65.30849 36560 ft 545 kts 36°
2026-04-26 15:59 12.13386 -65.28768 35942 ft 556 kts 30°
2026-04-26 15:59 12.16693 -65.26758 36664 ft 533 kts 33°
2026-04-26 16:00 12.19817 -65.24880 37128 ft 525 kts 30°
2026-04-26 16:00 12.23086 -65.23063 36975 ft 529 kts 27°
2026-04-26 16:00 12.26422 -65.21452 37058 ft 528 kts 24°
2026-04-26 16:01 12.32922 -65.18108 37154 ft 526 kts 34°
2026-04-26 16:01 12.38845 -65.13684 37127 ft 525 kts 38°
2026-04-26 16:02 12.44700 -65.09195 37138 ft 525 kts 37°
2026-04-26 16:02 12.50588 -65.04782 37137 ft 524 kts 37°
2026-04-26 16:03 12.56494 -65.00475 37138 ft 523 kts 36°
2026-04-26 16:03 12.62452 -64.96226 37138 ft 523 kts 35°
2026-04-26 16:04 12.68458 -64.92013 37141 ft 523 kts 35°
2026-04-26 16:04 12.74484 -64.87836 37142 ft 521 kts 34°
2026-04-26 16:05 12.80483 -64.83709 37139 ft 520 kts 34°
2026-04-26 16:05 12.86455 -64.79622 37140 ft 519 kts 34°
2026-04-26 16:06 12.92493 -64.75503 37138 ft 521 kts 34°
2026-04-26 16:06 12.98554 -64.71374 37140 ft 525 kts 34°
2026-04-26 16:07 13.04659 -64.67217 37142 ft 528 kts 35°
2026-04-26 16:07 13.10418 -64.62494 37141 ft 529 kts 42°
2026-04-26 16:08 13.15840 -64.57449 37145 ft 530 kts 44°
2026-04-26 16:08 13.21202 -64.52295 37144 ft 526 kts 44°
2026-04-26 16:09 13.26515 -64.47137 37146 ft 523 kts 44°
2026-04-26 16:09 13.31781 -64.42009 37178 ft 521 kts 44°
2026-04-26 16:10 13.37014 -64.36937 37195 ft 520 kts 44°
2026-04-26 16:10 13.42284 -64.31954 37199 ft 519 kts 43°
2026-04-26 16:11 13.47670 -64.26914 37199 ft 519 kts 43°
2026-04-26 16:11 13.52973 -64.21964 37199 ft 519 kts 43°
2026-04-26 16:12 13.58367 -64.16926 37197 ft 519 kts 43°
2026-04-26 16:12 13.65452 -64.10213 37202 ft 520 kts 44°
2026-04-26 16:13 13.70736 -64.05134 37203 ft 520 kts 44°
2026-04-26 16:13 13.76811 -63.99274 37202 ft 520 kts 44°
2026-04-26 16:14 13.81295 -63.94941 37201 ft 520 kts 44°
2026-04-26 16:14 13.86761 -63.89653 37207 ft 574 kts 44°
2026-04-26 16:15 13.89711 -63.86795 37206 ft 606 kts 44°
2026-04-26 16:15 13.92854 -63.83752 37206 ft 633 kts 44°
2026-04-26 16:15 13.96134 -63.80575 37204 ft 655 kts 44°
2026-04-26 16:16 14.02914 -63.74008 37207 ft 686 kts 44°
2026-04-26 16:16 14.06422 -63.70608 37207 ft 697 kts 44°
2026-04-26 16:16 14.13392 -63.63847 37206 ft 712 kts 44°
2026-04-26 16:17 14.20798 -63.56663 37208 ft 721 kts 44°
2026-04-26 16:17 14.28090 -63.49587 37208 ft 728 kts 44°
2026-04-26 16:18 14.39229 -63.38763 37211 ft 736 kts 44°
2026-04-26 16:19 14.50433 -63.27856 37219 ft 741 kts 44°
2026-04-26 16:20 14.61708 -63.16861 37217 ft 744 kts 44°
2026-04-26 16:20 14.73035 -63.05795 37216 ft 747 kts 44°
2026-04-26 16:21 14.80467 -62.98525 37216 ft 749 kts 44°
2026-04-26 16:21 14.88129 -62.91021 37214 ft 750 kts 44°
2026-04-26 16:22 14.95628 -62.83668 37218 ft 751 kts 44°
2026-04-26 16:22 15.03225 -62.76210 37218 ft 752 kts 44°
2026-04-26 16:23 15.10817 -62.68747 37216 ft 753 kts 44°
2026-04-26 16:23 15.18418 -62.61267 37217 ft 754 kts 44°
2026-04-26 16:24 15.26008 -62.53785 37217 ft 756 kts 44°
2026-04-26 16:24 15.33945 -62.46701 37236 ft 756 kts 32°
2026-04-26 16:25 15.43127 -62.41316 37208 ft 757 kts 27°
2026-04-26 16:25 15.47820 -62.38834 35984 ft 740 kts 25°
2026-04-26 16:25 15.52284 -62.36609 34618 ft 685 kts 24°
2026-04-26 16:26 15.56500 -62.34642 33273 ft 640 kts 22°
2026-04-26 16:26 15.60458 -62.32855 31960 ft 604 kts 21°
2026-04-26 16:26 15.64222 -62.31149 30737 ft 579 kts 21°
2026-04-26 16:26 15.67858 -62.29456 29486 ft 561 kts 21°
2026-04-26 16:27 15.71357 -62.27880 28228 ft 550 kts 22°
2026-04-26 16:27 15.74794 -62.26254 27041 ft 542 kts 24°
2026-04-26 16:27 15.78177 -62.24550 25920 ft 535 kts 25°
2026-04-26 16:27 15.81472 -62.22790 24885 ft 528 kts 27°
2026-04-26 16:28 15.84655 -62.20987 24422 ft 509 kts 28°
2026-04-26 16:28 15.87662 -62.19192 23843 ft 478 kts 30°
2026-04-26 16:28 15.90387 -62.17483 22597 ft 441 kts 31°
2026-04-26 16:28 15.92870 -62.15861 21506 ft 401 kts 32°
2026-04-26 16:29 15.95057 -62.14418 20979 ft 347 kts 32°
2026-04-26 16:29 15.96966 -62.13154 20239 ft 313 kts 32°
2026-04-26 16:29 15.98759 -62.11966 19125 ft 296 kts 32°
2026-04-26 16:29 16.00456 -62.10841 18060 ft 282 kts 32°
2026-04-26 16:30 16.02084 -62.09761 16929 ft 274 kts 32°
2026-04-26 16:30 16.03680 -62.08720 15895 ft 280 kts 29°
2026-04-26 16:30 16.05377 -62.07665 14930 ft 282 kts 32°
2026-04-26 16:30 16.07078 -62.06625 14124 ft 277 kts 25°
2026-04-26 16:31 16.08782 -62.05786 13299 ft 274 kts 24°
2026-04-26 16:31 16.10532 -62.04940 12455 ft 272 kts 24°
2026-04-26 16:31 16.12268 -62.04105 11667 ft 306 kts 24°
2026-04-26 16:31 16.14495 -62.03039 10751 ft 388 kts 24°
2026-04-26 16:32 16.17185 -62.01757 9806 ft 471 kts 24°
2026-04-26 16:32 16.19292 -62.00755 9118 ft 519 kts 24°
2026-04-26 16:32 16.23385 -61.98819 8510 ft 442 kts 25°
2026-04-26 16:32 16.26007 -61.97568 8121 ft 386 kts 25°
2026-04-26 16:33 16.28282 -61.96477 7739 ft 336 kts 25°
2026-04-26 16:33 16.30251 -61.95542 7689 ft 270 kts 23°
2026-04-26 16:33 16.31657 -61.94840 8312 ft 199 kts 34°
2026-04-26 16:33 16.32692 -61.93727 7142 ft 248 kts 75°
2026-04-26 16:34 16.32488 -61.92083 5899 ft 231 kts 120°
2026-04-26 16:34 16.31650 -61.90625 5501 ft 227 kts 126°
2026-04-26 16:34 16.30779 -61.89380 5752 ft 199 kts 130°
2026-04-26 16:34 16.29926 -61.88313 5846 ft 192 kts 129°
2026-04-26 16:35 16.29026 -61.86981 5883 ft 261 kts 126°
2026-04-26 16:35 16.27812 -61.85153 5788 ft 353 kts 126°
2026-04-26 16:35 16.26213 -61.82740 5504 ft 456 kts 126°
2026-04-26 16:35 16.24225 -61.79758 5200 ft 548 kts 126°
2026-04-26 16:36 16.21940 -61.76342 4894 ft 583 kts 125°
2026-04-26 16:36 16.19750 -61.73064 4628 ft 513 kts 125°
2026-04-26 16:36 16.17860 -61.70222 4366 ft 445 kts 125°
2026-04-26 16:36 16.16196 -61.67708 4110 ft 401 kts 125°
2026-04-26 16:37 16.15150 -61.65246 3966 ft 356 kts 100°
2026-04-26 16:37 16.15483 -61.62844 3725 ft 320 kts 63°
2026-04-26 16:37 16.16643 -61.60999 3558 ft 289 kts 59°
2026-04-26 16:37 16.17783 -61.59431 3488 ft 259 kts 47°
2026-04-26 16:38 16.19272 -61.58567 3365 ft 236 kts 17°
2026-04-26 16:38 16.20796 -61.58246 3249 ft 219 kts 12°
2026-04-26 16:38 16.22326 -61.58019 3041 ft 236 kts 22°
2026-04-26 16:38 16.23858 -61.57035 2825 ft 290 kts 37°
2026-04-26 16:39 16.25861 -61.56090 2821 ft 347 kts 13°
2026-04-26 16:39 16.28411 -61.56208 2867 ft 396 kts 344°
2026-04-26 16:39 16.31034 -61.57580 2891 ft 446 kts 329°
2026-04-26 16:39 16.33756 -61.59529 2676 ft 497 kts 322°
2026-04-26 16:40 16.36570 -61.61828 2517 ft 532 kts 322°
2026-04-26 16:40 16.39501 -61.64231 2417 ft 515 kts 321°
2026-04-26 16:40 16.42095 -61.66359 2376 ft 464 kts 321°
2026-04-26 16:40 16.44502 -61.68348 2365 ft 391 kts 318°
2026-04-26 16:41 16.45599 -61.70329 2468 ft 261 kts 264°
2026-04-26 16:41 16.45020 -61.71709 2167 ft 185 kts 224°
2026-04-26 16:41 16.44030 -61.72712 2029 ft 195 kts 214°
2026-04-26 16:41 16.42942 -61.73428 1987 ft 174 kts 199°
2026-04-26 16:42 16.41825 -61.73726 1874 ft 159 kts 181°
2026-04-26 16:42 16.40743 -61.73791 1863 ft 155 kts 178°
2026-04-26 16:42 16.39625 -61.73800 2023 ft 165 kts 175°
2026-04-26 16:42 16.38404 -61.73741 2445 ft 189 kts 173°
2026-04-26 16:43 16.37029 -61.73613 2534 ft 198 kts 172°
2026-04-26 16:43 16.35713 -61.73401 2641 ft 187 kts 158°
2026-04-26 16:43 16.34647 -61.72669 2543 ft 191 kts 134°
2026-04-26 16:43 16.33734 -61.71645 2431 ft 193 kts 136°
2026-04-26 16:44 16.32792 -61.70656 2385 ft 191 kts 134°
2026-04-26 16:44 16.31898 -61.69588 1974 ft 206 kts 129°
2026-04-26 16:44 16.31136 -61.68254 1376 ft 221 kts 112°
2026-04-26 16:44 16.30708 -61.66730 1172 ft 214 kts 105°
2026-04-26 16:45 16.30348 -61.65301 1071 ft 188 kts 107°
2026-04-26 16:45 16.29991 -61.64088 834 ft 171 kts 111°
2026-04-26 16:45 16.29577 -61.62835 438 ft 196 kts 108°
2026-04-26 16:45 16.29180 -61.61501 486 ft 192 kts 107°
2026-04-26 16:46 16.28823 -61.60129 425 ft 196 kts 104°
2026-04-26 16:46 16.28489 -61.58678 907 ft 221 kts 107°
2026-04-26 16:46 16.27968 -61.57219 970 ft 201 kts 120°
2026-04-26 16:46 16.27363 -61.56002 885 ft 184 kts 118°
2026-04-26 16:47 16.26860 -61.54738 146 ft 199 kts 110°
2026-04-26 16:47 16.26576 -61.53469 25 ft 144 kts 103°
2026-04-26 16:47 16.26460 -61.52824 28 ft 68 kts 99°
2026-04-26 16:47 16.26407 -61.52525 28 ft 29 kts 100°
2026-04-26 16:48 16.26376 -61.52337 33 ft 20 kts 99°
2026-04-26 16:48 16.26402 -61.52240 34 ft 14 kts 11°
2026-04-26 16:48 16.26495 -61.52221 33 ft 13 kts 15°
2026-04-26 16:48 16.26569 -61.52203 33 ft 10 kts 10°
2026-04-26 16:49 16.26638 -61.52189 33 ft 11 kts
2026-04-26 16:49 16.26689 -61.52187 33 ft 11 kts 355°
2026-04-26 16:49 16.26732 -61.52244 32 ft 5 kts 283°
2026-04-26 16:49 16.26741 -61.52291 32 ft 8 kts 281°
2026-04-26 16:50 16.26745 -61.52314 32 ft 0 kts 282°
2026-04-26 16:50 16.26759 -61.52382 31 ft 11 kts 279°
2026-04-26 16:50 16.26764 -61.52407 31 ft 0 kts 281°
2026-04-26 16:51 16.26781 -61.52445 31 ft 8 kts 339°
2026-04-26 16:51 16.26829 -61.52445 30 ft 5 kts 11°
2026-04-26 16:51 16.26859 -61.52440 30 ft 0 kts